Date String (YYYY-MM-DD hh:mm:ss) UTC,Instrument flags,Ambient pressure (hPa),Sample flow (lpm),Bypass flow (lpm),Sample temperature (°C),Ambient temperature (°C),ASC tube jacket temperature (°C),LED temperature (°C),Box temperature (°C),Sample RH (%),Span deviation,Mass concentration (μg/m³),Mass concentration (μg/m³),Mass concentration (μg/m³)
DateTimeUTC,F1_M11,P_M11,Q1_M11,Q2_M11,T1_M11,T2_M11,T3_M11,T4_M11,T5_M11,U1_M11,ZSPAN_M11,X0_M11,X2_M11,X1_M11
2022-02-28 10:00:00,,0831.6,5.00,0.00,23.1,22.3,00.0,32.3,24.8,06.7,0000.0,0007.37,0003.28,0003.02
2022-02-28 10:01:00,,0831.6,5.00,0.00,23.1,22.3,00.0,32.3,24.8,06.7,0000.0,0007.25,0003.32,0003.08
2022-02-28 10:02:00,,0831.6,4.99,0.00,23.1,22.4,00.0,32.3,24.9,06.7,0000.0,0006.70,0003.36,0003.13
2022-02-28 10:03:00,,0831.6,5.01,0.00,23.1,22.4,00.0,32.3,24.8,06.7,0000.0,0006.65,0003.38,0003.14
2022-02-28 10:04:00,,0831.5,4.99,0.00,23.1,22.4,00.0,32.2,24.8,06.7,0000.0,0006.71,0003.39,0003.15
2022-02-28 10:05:00,,0831.5,5.01,0.00,23.1,22.4,00.0,32.2,24.9,06.7,0000.0,0006.71,0003.39,0003.15
2022-02-28 10:06:00,,0831.4,5.01,0.00,23.1,22.4,00.0,32.2,24.9,06.9,0000.0,0005.85,0003.40,0003.16
2022-02-28 10:07:00,,0831.4,4.98,0.00,23.1,22.4,00.0,32.2,24.9,07.0,0000.0,0005.60,0003.41,0003.17
2022-02-28 10:08:00,,0831.5,5.01,0.00,23.1,22.4,00.0,32.2,24.9,06.7,0000.0,0007.00,0003.41,0003.18
2022-02-28 10:09:00,,0831.5,5.00,0.00,23.1,22.4,00.0,32.2,24.9,06.7,0000.0,0006.51,0003.39,0003.16
2022-02-28 10:10:00,,0831.5,4.99,0.00,23.1,22.4,00.0,32.2,24.8,06.8,0000.0,0006.59,0003.42,0003.16
2022-02-28 10:11:00,,0831.5,5.00,0.00,23.1,22.4,00.0,32.2,24.9,06.9,0000.0,0006.53,0003.41,0003.16
2022-02-28 10:12:00,,0831.5,5.01,0.00,23.1,22.3,00.0,32.2,24.8,06.9,0000.0,0006.59,0003.38,0003.14
2022-02-28 10:13:00,,0831.4,5.01,0.00,23.1,22.3,00.0,32.2,24.8,06.8,0000.0,0006.40,0003.32,0003.09
2022-02-28 10:14:00,,0831.4,4.99,0.00,23.0,22.2,00.0,32.2,24.7,06.8,0000.0,0006.67,0003.28,0003.01
2022-02-28 10:15:00,,0831.4,5.00,0.00,23.0,22.2,00.0,32.1,24.7,06.9,0000.0,0007.10,0003.29,0003.00
2022-02-28 10:16:00,,0831.4,5.01,0.00,22.9,22.1,00.0,32.1,24.6,07.0,0000.0,0007.74,0003.34,0003.04
2022-02-28 10:17:00,,0831.4,5.01,0.00,22.9,22.1,00.0,32.1,24.5,07.0,0000.0,0008.46,0003.40,0003.10
2022-02-28 10:18:00,,0831.4,4.98,0.00,22.9,22.0,00.0,32.1,24.5,07.0,0000.0,0008.60,0003.44,0003.13
2022-02-28 10:19:00,,0831.4,5.01,0.00,22.8,22.0,00.0,32.0,24.5,06.9,0000.0,0007.74,0003.47,0003.15
2022-02-28 10:20:00,,0831.4,5.01,0.00,22.8,22.0,00.0,32.0,24.5,06.8,0000.0,0007.66,0003.49,0003.16
2022-02-28 10:21:00,,0831.4,4.98,0.00,22.8,22.0,00.0,32.0,24.5,06.9,0000.0,0007.66,0003.49,0003.18
2022-02-28 10:22:00,,0831.4,5.00,0.00,22.8,22.0,00.0,32.0,24.5,06.9,0000.0,0007.70,0003.52,0003.21
2022-02-28 10:23:00,,0831.4,5.01,0.00,22.8,22.0,00.0,32.0,24.5,06.9,0000.0,0007.67,0003.56,0003.26
2022-02-28 10:24:00,,0831.4,4.99,0.00,22.8,22.0,00.0,32.0,24.5,06.7,0000.0,0007.77,0003.65,0003.34
2022-02-28 10:25:00,,0831.4,4.98,0.00,22.8,22.0,00.0,31.9,24.5,06.9,0000.0,0007.67,0003.72,0003.42
2022-02-28 10:26:00,,0831.4,5.00,0.00,22.8,22.0,00.0,31.9,24.4,06.9,0000.0,0007.61,0003.78,0003.49
2022-02-28 10:27:00,,0831.4,5.01,0.00,22.7,21.9,00.0,31.9,24.4,07.0,0000.0,0007.08,0003.79,0003.52
2022-02-28 10:28:00,,0831.4,5.00,0.00,22.7,21.9,00.0,31.9,24.4,06.8,0000.0,0005.97,0003.80,0003.56
2022-02-28 10:29:00,,0831.4,4.99,0.00,22.7,21.9,00.0,31.9,24.4,06.8,0000.0,0005.77,0003.79,0003.59
2022-02-28 10:30:00,,0831.4,4.99,0.00,22.7,21.9,00.0,31.9,24.4,06.8,0000.0,0005.81,0003.77,0003.58
2022-02-28 10:31:00,,0831.4,5.01,0.00,22.7,21.8,00.0,31.9,24.3,06.8,0000.0,0005.81,0003.77,0003.59
2022-02-28 10:32:00,,0831.4,5.00,0.00,22.7,21.8,00.0,31.8,24.3,06.6,0000.0,0005.67,0003.74,0003.57
2022-02-28 10:33:00,,0831.4,4.99,0.00,22.7,21.8,00.0,31.8,24.3,06.5,0000.0,0005.50,0003.68,0003.53
2022-02-28 10:34:00,,0831.4,5.00,0.00,22.6,21.9,00.0,31.8,24.3,06.6,0000.0,0005.44,0003.63,0003.47
2022-02-28 10:35:00,,0831.4,5.01,0.00,22.6,21.9,00.0,31.8,24.3,06.8,0000.0,0005.76,0003.55,0003.40
2022-02-28 10:36:00,,0831.4,5.00,0.00,22.6,21.9,00.0,31.8,24.4,06.8,0000.0,0005.76,0003.50,0003.33
2022-02-28 10:37:00,,0831.4,5.01,0.00,22.6,21.9,00.0,31.8,24.4,06.6,0000.0,0005.45,0003.41,0003.24
2022-02-28 10:38:00,,0831.4,4.98,0.00,22.6,21.9,00.0,31.8,24.4,06.3,0000.0,0005.27,0003.29,0003.14
2022-02-28 10:39:00,,0831.4,5.01,0.00,22.6,21.9,00.0,31.8,24.4,06.0,0000.0,0005.07,0003.18,0002.95
2022-02-28 10:40:00,,0831.4,5.01,0.00,22.6,22.0,00.0,31.8,24.4,06.0,0000.0,0004.69,0003.01,0002.73
2022-02-28 10:41:00,,0831.4,4.99,0.00,22.6,22.0,00.0,31.7,24.4,06.0,0000.0,0004.46,0002.89,0002.60
2022-02-28 10:42:00,,0831.4,5.01,0.00,22.6,21.9,00.0,31.7,24.4,06.2,0000.0,0004.34,0002.78,0002.49
2022-02-28 10:43:00,,0831.4,4.98,0.00,22.6,21.9,00.0,31.7,24.3,06.1,0000.0,0004.28,0002.72,0002.41
2022-02-28 10:44:00,,0831.4,5.00,0.00,22.6,21.9,00.0,31.7,24.3,05.9,0000.0,0004.21,0002.66,0002.35
2022-02-28 10:45:00,,0831.4,5.02,0.00,22.6,21.9,00.0,31.7,24.3,06.0,0000.0,0004.05,0002.58,0002.29
2022-02-28 10:46:00,,0831.4,5.00,0.00,22.6,21.8,00.0,31.7,24.3,05.8,0000.0,0003.77,0002.48,0002.20
2022-02-28 10:47:00,,0831.4,5.01,0.00,22.6,21.8,00.0,31.7,24.3,05.8,0000.0,0003.58,0002.38,0002.14
2022-02-28 10:48:00,,0831.4,4.99,0.00,22.6,21.9,00.0,31.7,24.3,05.8,0000.0,0003.39,0002.32,0002.10
2022-02-28 10:49:00,,0831.4,5.01,0.00,22.6,21.9,00.0,31.7,24.4,06.0,0000.0,0003.27,0002.30,0002.08
2022-02-28 10:50:00,,0831.5,4.99,0.00,22.6,21.9,00.0,31.7,24.3,06.0,0000.0,0003.25,0002.29,0002.08
2022-02-28 10:51:00,,0831.5,5.01,0.00,22.6,22.0,00.0,31.7,24.4,06.1,0000.0,0003.27,0002.34,0002.13
2022-02-28 10:52:00,,0831.6,5.00,0.00,22.6,22.0,00.0,31.7,24.4,06.1,0000.0,0003.31,0002.39,0002.17
2022-02-28 10:53:00,,0831.5,4.98,0.00,22.6,22.0,00.0,31.7,24.4,06.1,0000.0,0003.31,0002.42,0002.21
2022-02-28 10:54:00,,0831.4,5.01,0.00,22.6,22.0,00.0,31.7,24.4,06.2,0000.0,0003.48,0002.52,0002.30
2022-02-28 10:55:00,,0831.4,5.01,0.00,22.6,21.9,00.0,31.7,24.4,06.4,0000.0,0004.34,0002.58,0002.34
2022-02-28 10:56:00,,0831.4,4.98,0.00,22.6,21.9,00.0,31.7,24.3,06.3,0000.0,0005.14,0002.62,0002.36
2022-02-28 10:57:00,,0831.3,5.00,0.00,22.6,21.9,00.0,31.7,24.3,06.3,0000.0,0004.88,0002.66,0002.39
2022-02-28 10:58:00,,0831.4,5.00,0.00,22.6,21.9,00.0,31.6,24.3,06.3,0000.0,0004.84,0002.76,0002.46
2022-02-28 10:59:00,,0831.4,5.01,0.00,22.6,21.9,00.0,31.6,24.3,06.4,0000.0,0004.95,0002.85,0002.55
